Flag for Venezuela Weather past 2 weeks in Caracas, Venezuela

Now
86 °F

Passing clouds.


Feels Like: 93 °F
Forecast: 64 / 76 °F
Wind: 3 mph from Northeast

Location: Caracas / Maiquetia Aerop. Intl. Simon Bolivar

Current Time: Dec 21, 2014 at 11:48:59 AM

Latest Report: Dec 21, 2014 at 11:30 AM


Visibility: N/A

Pressure: 29.98 "Hg

Humidity: 66%

Dew point: 73 °F

Location of CaracasLocation

Historic Weather in Caracas — Graph

°F

Caracas temperature yesterday

Maximum temperature yesterday: 86 °F (at 11:30 AM)
Minimum temperature yesterday: 75 °F (at 2:30 AM)
Average temperature yesterday: 80 °F

Past Weeks' High & Low Weather Summary

 TemperatureHumidityPressure
High88 °F (Dec 8, 2:30 PM)100% (Dec 19, 6:30 AM)30.04 "Hg (Dec 19, 6:30 AM)
Low73 °F (Dec 14, 4:30 AM)54% (Dec 16, 8:30 AM)29.86 "Hg (Dec 6, 3:30 PM)
Average80 °F75%29.94 "Hg
* Reported Dec 6 10:30 AM — Dec 21 10:30 AM, Caracas, Weather by CustomWeather, © 2014

Note: Actual official high and low records may vary slightly from our data, if they occured in-between our weather recording intervals... More about our weather records

Advertising

Caracas weather history for previous 24 hours

 ConditionsComfort  
Time TempWeatherWind HumidityBarometerVisibility
10:30 AM
Dec 21
84 °FPassing clouds.5 mph70%30.01 "HgN/A
9:30 AM84 °FPassing clouds.3 mph62%30.01 "HgN/A
8:30 AM81 °FPassing clouds.No wind62%29.98 "HgN/A
7:30 AM75 °FPassing clouds.No wind74%29.98 "HgN/A
6:30 AM79 °FPassing clouds.5 mph70%29.98 "HgN/A
4:30 AM75 °FClear.No wind78%29.98 "Hg10 mi
3:30 AM75 °FClear.1 mph78%29.98 "Hg10 mi
2:30 AM75 °FClear.No wind78%29.98 "Hg10 mi
1:30 AM75 °FClear.1 mph78%29.98 "Hg10 mi
12:30 AM77 °FClear.1 mph74%30.01 "Hg10 mi
11:30 PM
Dec 20
77 °FClear.No wind79%30.01 "Hg10 mi
10:30 PM77 °FClear.No wind79%29.98 "Hg10 mi
9:30 PM77 °FClear.No wind79%29.98 "Hg10 mi
8:30 PM79 °FClear.1 mph79%29.98 "Hg10 mi
7:30 PM79 °FClear.1 mph79%29.95 "Hg10 mi
6:30 PM81 °FClear.2 mph74%29.95 "Hg10 mi
5:30 PM82 °FPassing clouds.3 mph70%29.92 "HgN/A
4:30 PM82 °FPassing clouds.3 mph70%29.92 "HgN/A
3:30 PM86 °FScattered clouds.3 mph66%29.92 "HgN/A
2:30 PM86 °FScattered clouds.2 mph62%29.95 "HgN/A
1:30 PM86 °FScattered clouds.5 mph66%29.98 "HgN/A
12:30 PM86 °FScattered clouds.5 mph66%29.98 "HgN/A
11:30 AM86 °FPassing clouds.5 mph66%30.01 "HgN/A
Weather by CustomWeather, © 2014

See weather overviewHow to use our weather pages